Location: Ayer Observatory
(42.2600°N, 71.0700°W)
Time: 15:55:05
(UTC-04:00)

XW-2A - Pass Details

Date: 26 July 2019
Orbit: 432 x 448 km, 97.3° (Epoch: 24 August)

Event Time Altitude Azimuth Distance (km) Brightness Sun altitude
Rises 21:20:46 0° 195° (SSW) 2,393 ? -11.7°
Reaches altitude 10° 21:23:03 10° 210° (SSW) 1,533 ? -12.0°
Maximum altitude 21:25:42 23° 265° (W) 988 ? -12.4°
Drops below altitude 10° 21:28:23 10° 319° (NW) 1,549 ? -12.8°
Sets 21:30:43 0° 334° (NNW) 2,426 ? -13.1°
